QPF
0.01 0.01 0.01 0.01 0.01 0.01 0.01 0.01 0.01 0.01 0.01 0.01 0.01 0.01 0.01 0.01 0.01 0.01 0.01 0.01 0.01 0.01 0.01 0.01 0.01 0.01 0.01 0.01 0.01 0.02 0.01 0.01 0.01 0.02 0.02 0.01 0.02 0.02 0.03 0.03 0.03 0.02 0.02 0.02
0.01 0.01 0.01 0.01 0.01 0.01 0.01 0.01 0.01 0.01 0.01 0.01 0.01 0.01 0.01 0.01 0.01 0.01 0.01 0.01 0.01 0.01 0.01 0.01 0.01 0.01 0.01 0.01 0.01 0.02 0.01 0.01 0.01 0.01 0.02 0.02 0.02 0.02 0.02 0.02 0.03 0.03 0.03 0.02
0.02 0.01 0.01 0.01 0.01 0.01 0.01 0.01 0.01 0.01 0.01 0.01 0.01 0.01 0.01 0.01 0.01 0.01 0.01 0.01 0.01 0.01 0.01 0.02 0.02 0.02 0.01 0.02 0.02 0.02 0.02 0.01 0.01 0.01 0.01 0.01 0.02 0.01 0.01 0.02 0.02 0.03 0.03 0.03
0.03 0.02 0.02 0.01 0.00 0.00 0.01 0.01 0.01 0.01 0.01 0.01 0.01 0.01 0.01 0.01 0.01 0.01 0.01 0.01 0.01 0.01 0.02 0.02 0.02 0.02 0.01 0.01 0.01 0.01 0.02 0.02 0.01 0.01 0.01 0.01 0.01 0.01 0.01 0.01 0.02 0.03 0.03 0.03
0.03 0.03 0.02 0.01 0.00 0.00 0.00 0.01 0.01 0.01 0.01 0.01 0.01 0.01 0.01 0.01 0.01 0.01 0.01 0.01 0.01 0.01 0.02 0.02 0.02 0.02 0.02 0.02 0.02 0.02 0.02 0.02 0.02 0.01 0.01 0.01 0.01 0.01 0.01 0.01 0.02 0.02 0.03 0.03
0.02 0.03 0.02 0.00 0.00 0.00 0.00 0.01 0.00 0.01 0.01 0.01 0.01 0.01 0.01 0.01 0.01 0.01 0.01 0.01 0.01 0.01 0.01 0.01 0.02 0.02 0.02 0.02 0.02 0.02 0.02 0.02 0.02 0.02 0.02 0.01 0.01 0.01 0.02 0.02 0.02 0.02 0.02 0.03
0.02 0.02 0.01 0.01 0.00 0.00 0.01 0.01 0.00 0.00 0.01 0.00 0.00 0.01 0.00 0.00 0.01 0.01 0.01 0.01 0.01 0.01 0.01 0.01 0.02 0.01 0.01 0.01 0.02 0.02 0.02 0.02 0.02 0.02 0.02 0.02 0.02 0.02 0.02 0.02 0.02 0.02 0.02 0.02
0.01 0.02 0.01 0.01 0.00 0.01 0.01 0.00 0.00 0.00 0.00 0.00 0.00 0.00 0.00 0.00 0.00 0.00 0.00 0.00 0.00 0.01 0.01 0.01 0.01 0.01 0.01 0.01 0.01 0.02 0.02 0.02 0.02 0.02 0.02 0.02 0.02 0.02 0.02 0.02 0.02 0.02 0.02 0.01
0.01 0.01 0.01 0.01 0.01 0.01 0.00 0.00 0.00 0.00 0.00 0.00 0.00 0.00 0.00 0.00 0.00 0.00 0.00 0.00 0.00 0.00 0.00 0.00 0.00 0.01 0.01 0.01 0.01 0.01 0.01 0.01 0.01 0.01 0.01 0.01 0.01 0.02 0.02 0.02 0.02 0.02 0.01 0.01
0.01 0.01 0.01 0.01 0.00 0.00 0.00 0.00 0.00 0.00 0.00 0.00 0.00 0.00 0.00 0.00 0.00 0.00 0.00 0.00 0.00 0.00 0.00 0.00 0.00 0.00 0.00 0.01 0.01 0.01 0.01 0.01 0.01 0.01 0.01 0.01 0.01 0.01 0.01 0.01 0.02 0.02 0.02 0.01
0.01 0.01 0.01 0.01 0.00 0.00 0.00 0.00 0.00 0.00 0.00 0.00 0.00 0.00 0.01 0.01 0.01 0.01 0.00 0.00 0.00 0.00 0.00 0.00 0.00 0.00 0.00 0.01 0.01 0.01 0.01 0.01 0.01 0.01 0.01 0.01 0.01 0.02 0.02 0.02 0.02 0.02 0.02 0.02
0.01 0.01 0.01 0.01 0.01 0.00 0.00 0.00 0.01 0.01 0.01 0.01 0.01 0.01 0.01 0.01 0.01 0.01 0.00 0.00 0.00 0.00 0.01 0.00 0.00 0.01 0.01 0.01 0.01 0.01 0.01 0.01 0.01 0.01 0.01 0.01 0.01 0.01 0.01 0.02 0.02 0.02 0.02 0.03
0.01 0.01 0.01 0.01 0.00 0.00 0.00 0.00 0.01 0.01 0.01 0.01 0.01 0.01 0.01 0.01 0.01 0.01 0.01 0.00 0.00 0.01 0.00 0.00 0.00 0.00 0.01 0.01 0.01 0.01 0.01 0.01 0.01 0.01 0.01 0.01 0.01 0.01 0.01 0.01 0.01 0.01 0.02 0.02
0.01 0.01 0.01 0.01 0.01 0.01 0.01 0.01 0.01 0.01 0.01 0.01 0.01 0.01 0.01 0.01 0.01 0.01 0.01 0.01 0.01 0.01 0.00 0.00 0.00 0.00 0.00 0.01 0.01 0.01 0.01 0.01 0.01 0.01 0.01 0.01 0.01 0.01 0.01 0.01 0.01 0.01 0.02 0.02
0.01 0.01 0.01 0.01 0.01 0.01 0.01 0.01 0.01 0.01 0.01 0.01 0.01 0.01 0.01 0.01 0.01 0.01 0.01 0.00 0.00 0.00 0.00 0.00 0.00 0.01 0.01 0.01 0.01 0.01 0.01 0.01 0.01 0.01 0.01 0.01 0.01 0.01 0.01 0.01 0.01 0.01 0.01 0.01
0.01 0.01 0.01 0.01 0.01 0.01 0.01 0.01 0.01 0.01 0.01 0.01 0.01 0.01 0.01 0.01 0.01 0.01 0.01 0.00 0.00 0.00 0.01 0.01 0.01 0.01 0.01 0.01 0.01 0.01 0.01 0.01 0.01 0.01 0.01 0.01 0.01 0.01 0.01 0.01 0.01 0.01 0.01 0.01
0.01 0.01 0.01 0.01 0.01 0.01 0.01 0.01 0.01 0.01 0.01 0.01 0.01 0.01 0.01 0.01 0.01 0.01 0.01 0.01 0.01 0.01 0.01 0.01 0.01 0.01 0.01 0.01 0.01 0.01 0.01 0.01 0.01 0.01 0.01 0.01 0.01 0.01 0.01 0.01 0.01 0.00 0.00 0.01
0.01 0.01 0.01 0.01 0.01 0.01 0.01 0.01 0.01 0.01 0.01 0.01 0.01 0.01 0.01 0.01 0.01 0.01 0.01 0.00 0.00 0.00 0.00 0.00 0.00 0.00 0.00 0.00 0.01 0.01 0.01 0.01 0.01 0.00 0.00 0.01 0.01 0.01 0.01 0.01 0.01 0.01 0.00 0.00
0.01 0.01 0.01 0.01 0.01 0.01 0.01 0.01 0.01 0.01 0.01 0.01 0.01 0.01 0.01 0.01 0.00 0.00 0.00 0.00 0.00 0.00 0.00 0.00 0.00 0.00 0.00 0.00 0.01 0.01 0.01 0.01 0.00 0.00 0.00 0.01 0.01 0.01 0.00 0.00 0.00 0.00 0.01 0.01
0.01 0.01 0.01 0.01 0.01 0.01 0.01 0.02 0.02 0.02 0.02 0.02 0.01 0.01 0.01 0.00 0.00 0.00 0.00 0.00 0.00 0.00 0.00 0.00 0.01 0.00 0.00 0.00 0.01 0.01 0.01 0.01 0.01 0.00 0.00 0.00 0.00 0.00 0.00 0.00 0.00 0.01 0.01 0.01
0.01 0.01 0.01 0.01 0.01 0.01 0.01 0.02 0.02 0.02 0.02 0.02 0.01 0.01 0.01 0.01 0.00 0.00 0.00 0.00 0.00 0.00 0.00 0.01 0.00 0.00 0.00 0.01 0.01 0.01 0.01 0.01 0.01 0.01 0.01 0.01 0.00 0.00 0.00 0.00 0.00 0.00 0.01 0.01
0.01 0.01 0.01 0.01 0.02 0.02 0.02 0.02 0.02 0.02 0.01 0.01 0.01 0.01 0.01 0.01 0.01 0.00 0.00 0.00 0.00 0.00 0.01 0.01 0.00 0.01 0.01 0.02 0.01 0.01 0.00 0.00 0.01 0.01 0.01 0.01 0.01 0.01 0.01 0.00 0.01 0.01 0.01 0.01
0.01 0.01 0.01 0.01 0.01 0.02 0.02 0.02 0.01 0.01 0.01 0.01 0.01 0.01 0.01 0.00 0.00 0.00 0.01 0.00 0.00 0.01 0.01 0.01 0.01 0.01 0.02 0.02 0.01 0.00 0.00 0.00 0.01 0.01 0.01 0.01 0.01 0.01 0.01 0.01 0.01 0.01 0.01 0.01
0.01 0.01 0.01 0.01 0.01 0.01 0.01 0.01 0.01 0.01 0.01 0.01 0.00 0.00 0.00 0.00 0.00 0.00 0.00 0.00 0.01 0.01 0.01 0.01 0.01 0.01 0.02 0.01 0.01 0.01 0.01 0.01 0.01 0.01 0.01 0.01 0.01 0.01 0.01 0.01 0.01 0.01 0.01 0.01
0.01 0.01 0.01 0.01 0.01 0.01 0.01 0.01 0.01 0.01 0.01 0.00 0.00 0.00 0.00 0.00 0.00 0.00 0.00 0.00 0.01 0.01 0.01 0.01 0.01 0.01 0.01 0.01 0.01 0.01 0.01 0.01 0.01 0.01 0.01 0.01 0.01 0.01 0.01 0.01 0.01 0.01 0.01 0.01
0.01 0.01 0.01 0.01 0.01 0.01 0.01 0.01 0.01 0.00 0.00 0.00 0.00 0.00 0.00 0.00 0.00 0.00 0.00 0.00 0.00 0.01 0.01 0.00 0.00 0.01 0.01 0.01 0.01 0.01 0.01 0.01 0.01 0.01 0.01 0.01 0.01 0.01 0.01 0.01 0.01 0.01 0.01 0.01
0.01 0.01 0.01 0.01 0.01 0.01 0.01 0.01 0.00 0.00 0.00 0.00 0.01 0.00 0.00 0.00 0.00 0.00 0.00 0.00 0.00 0.00 0.00 0.00 0.00 0.00 0.01 0.01 0.01 0.01 0.01 0.01 0.01 0.01 0.01 0.01 0.01 0.01 0.01 0.01 0.01 0.01 0.01 0.01
MSLP
1024.97 1024.72 1024.49 1024.32 1024.23 1024.26 1024.41 1024.70 1025.14 1025.71 1026.40 1027.18 1028.00 1028.82 1029.61 1030.31 1030.91 1031.40 1031.76 1032.00 1032.15 1032.22 1032.22 1032.16 1032.03 1031.85 1031.59 1031.24 1030.82 1030.33 1029.78 1029.21 1028.64 1028.12 1027.67 1027.31 1027.05 1026.88 1026.78 1026.74 1026.72 1026.70 1026.68 1026.65
1026.38 1026.19 1025.99 1025.82 1025.70 1025.67 1025.73 1025.92 1026.24 1026.69 1027.26 1027.92 1028.63 1029.36 1030.06 1030.70 1031.25 1031.70 1032.05 1032.30 1032.47 1032.57 1032.62 1032.62 1032.56 1032.44 1032.25 1031.97 1031.61 1031.17 1030.66 1030.12 1029.56 1029.04 1028.56 1028.17 1027.85 1027.62 1027.45 1027.33 1027.24 1027.15 1027.06 1026.97
1027.93 1027.77 1027.59 1027.41 1027.25 1027.15 1027.13 1027.21 1027.42 1027.75 1028.19 1028.73 1029.33 1029.95 1030.55 1031.11 1031.60 1032.01 1032.33 1032.57 1032.76 1032.89 1032.98 1033.03 1033.03 1032.98 1032.85 1032.64 1032.34 1031.95 1031.49 1030.98 1030.44 1029.92 1029.44 1029.03 1028.68 1028.41 1028.20 1028.03 1027.89 1027.75 1027.61 1027.48
1029.49 1029.34 1029.14 1028.92 1028.70 1028.53 1028.42 1028.41 1028.52 1028.74 1029.07 1029.49 1029.98 1030.50 1031.01 1031.48 1031.91 1032.27 1032.56 1032.79 1032.98 1033.14 1033.27 1033.36 1033.42 1033.43 1033.37 1033.22 1032.98 1032.65 1032.24 1031.77 1031.27 1030.77 1030.30 1029.89 1029.54 1029.26 1029.03 1028.84 1028.67 1028.51 1028.35 1028.19
1030.90 1030.70 1030.45 1030.16 1029.87 1029.62 1029.43 1029.34 1029.36 1029.49 1029.73 1030.07 1030.47 1030.90 1031.33 1031.74 1032.10 1032.42 1032.68 1032.91 1033.11 1033.29 1033.45 1033.59 1033.70 1033.77 1033.77 1033.68 1033.51 1033.24 1032.88 1032.47 1032.01 1031.56 1031.12 1030.74 1030.41 1030.14 1029.92 1029.73 1029.56 1029.40 1029.23 1029.06
1032.01 1031.72 1031.37 1030.99 1030.62 1030.29 1030.03 1029.87 1029.83 1029.90 1030.09 1030.36 1030.70 1031.07 1031.44 1031.80 1032.13 1032.41 1032.66 1032.89 1033.09 1033.29 1033.49 1033.67 1033.83 1033.96 1034.02 1034.00 1033.89 1033.69 1033.40 1033.05 1032.66 1032.26 1031.88 1031.54 1031.25 1031.01 1030.81 1030.65 1030.49 1030.34 1030.18 1030.00
1032.70 1032.29 1031.83 1031.35 1030.90 1030.50 1030.19 1029.99 1029.91 1029.95 1030.10 1030.35 1030.65 1030.99 1031.34 1031.67 1031.97 1032.24 1032.48 1032.71 1032.93 1033.15 1033.38 1033.60 1033.81 1033.98 1034.10 1034.15 1034.10 1033.98 1033.77 1033.49 1033.18 1032.85 1032.53 1032.25 1032.01 1031.81 1031.65 1031.51 1031.38 1031.24 1031.08 1030.91
1032.95 1032.43 1031.87 1031.30 1030.78 1030.34 1029.99 1029.77 1029.68 1029.72 1029.87 1030.11 1030.40 1030.73 1031.07 1031.38 1031.68 1031.94 1032.19 1032.42 1032.65 1032.89 1033.14 1033.39 1033.64 1033.85 1034.03 1034.13 1034.15 1034.10 1033.97 1033.77 1033.54 1033.29 1033.04 1032.82 1032.63 1032.48 1032.35 1032.24 1032.13 1032.01 1031.86 1031.70
1032.85 1032.24 1031.61 1030.99 1030.43 1029.97 1029.62 1029.40 1029.33 1029.38 1029.54 1029.78 1030.08 1030.41 1030.74 1031.06 1031.35 1031.61 1031.85 1032.09 1032.32 1032.57 1032.83 1033.10 1033.36 1033.61 1033.82 1033.97 1034.05 1034.06 1034.00 1033.89 1033.73 1033.56 1033.39 1033.23 1033.09 1032.98 1032.88 1032.79 1032.70 1032.58 1032.45 1032.29
1032.52 1031.88 1031.23 1030.61 1030.06 1029.61 1029.28 1029.09 1029.04 1029.11 1029.29 1029.55 1029.86 1030.19 1030.51 1030.82 1031.10 1031.35 1031.58 1031.81 1032.03 1032.27 1032.52 1032.78 1033.05 1033.30 1033.53 1033.71 1033.83 1033.90 1033.90 1033.85 1033.77 1033.67 1033.56 1033.45 1033.36 1033.29 1033.21 1033.14 1033.05 1032.95 1032.82 1032.66
1032.13 1031.52 1030.91 1030.33 1029.83 1029.43 1029.15 1029.01 1028.99 1029.09 1029.28 1029.55 1029.86 1030.18 1030.49 1030.78 1031.04 1031.27 1031.48 1031.67 1031.86 1032.07 1032.28 1032.52 1032.75 1032.99 1033.21 1033.39 1033.54 1033.63 1033.68 1033.69 1033.67 1033.62 1033.57 1033.52 1033.46 1033.41 1033.36 1033.30 1033.22 1033.11 1032.99 1032.84
1031.80 1031.27 1030.75 1030.27 1029.85 1029.53 1029.32 1029.23 1029.25 1029.38 1029.58 1029.85 1030.15 1030.45 1030.73 1030.99 1031.22 1031.41 1031.57 1031.71 1031.85 1032.00 1032.16 1032.33 1032.52 1032.71 1032.89 1033.06 1033.20 1033.32 1033.39 1033.44 1033.47 1033.47 1033.46 1033.45 1033.43 1033.40 1033.36 1033.31 1033.23 1033.13 1033.01 1032.88
1031.57 1031.16 1030.76 1030.39 1030.09 1029.86 1029.73 1029.70 1029.76 1029.91 1030.13 1030.39 1030.66 1030.94 1031.19 1031.41 1031.59 1031.73 1031.83 1031.92 1031.98 1032.06 1032.14 1032.23 1032.34 1032.47 1032.60 1032.73 1032.86 1032.97 1033.06 1033.14 1033.20 1033.25 1033.28 1033.30 1033.31 1033.30 1033.27 1033.23 1033.15 1033.06 1032.94 1032.82
1031.40 1031.12 1030.85 1030.61 1030.42 1030.29 1030.24 1030.27 1030.38 1030.55 1030.77 1031.02 1031.28 1031.53 1031.75 1031.93 1032.06 1032.15 1032.19 1032.20 1032.19 1032.18 1032.17 1032.18 1032.21 1032.25 1032.32 1032.41 1032.51 1032.61 1032.71 1032.81 1032.90 1032.99 1033.06 1033.11 1033.15 1033.16 1033.14 1033.10 1033.04 1032.95 1032.84 1032.73
1031.22 1031.05 1030.89 1030.76 1030.67 1030.63 1030.66 1030.75 1030.90 1031.10 1031.33 1031.58 1031.84 1032.07 1032.27 1032.41 1032.50 1032.54 1032.52 1032.46 1032.38 1032.28 1032.19 1032.11 1032.05 1032.03 1032.04 1032.08 1032.15 1032.24 1032.35 1032.47 1032.59 1032.71 1032.81 1032.90 1032.96 1032.99 1032.99 1032.96 1032.90 1032.81 1032.71 1032.61
1030.92 1030.82 1030.74 1030.70 1030.69 1030.73 1030.82 1030.96 1031.16 1031.39 1031.65 1031.91 1032.17 1032.40 1032.58 1032.71 1032.78 1032.77 1032.71 1032.60 1032.45 1032.28 1032.11 1031.96 1031.84 1031.75 1031.71 1031.72 1031.77 1031.86 1031.98 1032.13 1032.28 1032.43 1032.56 1032.68 1032.76 1032.81 1032.82 1032.80 1032.74 1032.66 1032.57 1032.47
1030.47 1030.40 1030.36 1030.36 1030.40 1030.50 1030.64 1030.84 1031.07 1031.35 1031.64 1031.93 1032.20 1032.44 1032.63 1032.75 1032.80 1032.78 1032.68 1032.53 1032.34 1032.12 1031.90 1031.70 1031.53 1031.40 1031.34 1031.33 1031.38 1031.47 1031.61 1031.78 1031.96 1032.14 1032.30 1032.44 1032.54 1032.60 1032.62 1032.60 1032.55 1032.47 1032.38 1032.28
1029.87 1029.79 1029.76 1029.78 1029.85 1029.98 1030.16 1030.40 1030.68 1030.99 1031.31 1031.63 1031.93 1032.19 1032.39 1032.51 1032.56 1032.52 1032.41 1032.24 1032.02 1031.77 1031.52 1031.30 1031.11 1030.97 1030.90 1030.90 1030.96 1031.08 1031.24 1031.43 1031.64 1031.84 1032.03 1032.18 1032.30 1032.36 1032.38 1032.36 1032.30 1032.22 1032.13 1032.03
1029.23 1029.12 1029.07 1029.08 1029.16 1029.31 1029.51 1029.78 1030.08 1030.42 1030.77 1031.12 1031.44 1031.71 1031.91 1032.04 1032.09 1032.05 1031.93 1031.74 1031.51 1031.26 1031.01 1030.78 1030.60 1030.48 1030.42 1030.44 1030.53 1030.68 1030.87 1031.09 1031.32 1031.54 1031.73 1031.89 1032.00 1032.07 1032.08 1032.05 1031.99 1031.90 1031.80 1031.71
1028.69 1028.54 1028.46 1028.45 1028.53 1028.67 1028.89 1029.16 1029.48 1029.82 1030.19 1030.54 1030.85 1031.12 1031.32 1031.44 1031.48 1031.43 1031.30 1031.11 1030.89 1030.64 1030.40 1030.19 1030.04 1029.94 1029.92 1029.98 1030.10 1030.28 1030.50 1030.74 1030.99 1031.22 1031.41 1031.56 1031.67 1031.72 1031.72 1031.68 1031.61 1031.51 1031.42 1031.32
1028.39 1028.21 1028.10 1028.07 1028.12 1028.26 1028.45 1028.71 1029.01 1029.34 1029.69 1030.01 1030.31 1030.55 1030.72 1030.81 1030.82 1030.75 1030.62 1030.43 1030.21 1029.98 1029.76 1029.58 1029.46 1029.41 1029.43 1029.53 1029.69 1029.90 1030.14 1030.39 1030.64 1030.87 1031.06 1031.20 1031.29 1031.32 1031.31 1031.26 1031.18 1031.08 1030.98 1030.89
1028.43 1028.22 1028.09 1028.04 1028.06 1028.15 1028.32 1028.53 1028.79 1029.08 1029.36 1029.64 1029.88 1030.06 1030.18 1030.23 1030.20 1030.10 1029.95 1029.75 1029.53 1029.32 1029.14 1028.99 1028.91 1028.91 1028.97 1029.10 1029.29 1029.52 1029.78 1030.04 1030.28 1030.50 1030.67 1030.79 1030.86 1030.88 1030.86 1030.80 1030.72 1030.62 1030.53 1030.44
1028.82 1028.61 1028.45 1028.36 1028.34 1028.38 1028.49 1028.64 1028.82 1029.03 1029.24 1029.43 1029.59 1029.70 1029.75 1029.73 1029.65 1029.52 1029.34 1029.13 1028.92 1028.72 1028.56 1028.46 1028.41 1028.44 1028.53 1028.70 1028.91 1029.15 1029.41 1029.66 1029.90 1030.10 1030.25 1030.36 1030.41 1030.42 1030.39 1030.33 1030.25 1030.16 1030.07 1029.99
1029.52 1029.29 1029.10 1028.97 1028.88 1028.86 1028.88 1028.94 1029.04 1029.15 1029.26 1029.35 1029.42 1029.44 1029.41 1029.33 1029.20 1029.02 1028.82 1028.60 1028.39 1028.21 1028.07 1027.99 1027.97 1028.02 1028.14 1028.32 1028.53 1028.78 1029.03 1029.27 1029.48 1029.66 1029.80 1029.88 1029.93 1029.93 1029.89 1029.84 1029.77 1029.69 1029.61 1029.53
1030.39 1030.13 1029.90 1029.71 1029.56 1029.45 1029.38 1029.34 1029.33 1029.34 1029.34 1029.34 1029.31 1029.25 1029.15 1029.01 1028.83 1028.62 1028.40 1028.18 1027.97 1027.80 1027.67 1027.61 1027.60 1027.67 1027.79 1027.96 1028.17 1028.40 1028.63 1028.85 1029.04 1029.19 1029.31 1029.38 1029.41 1029.41 1029.38 1029.33 1029.26 1029.19 1029.12 1029.05
1031.29 1031.00 1030.71 1030.45 1030.22 1030.01 1029.85 1029.71 1029.60 1029.51 1029.43 1029.34 1029.23 1029.10 1028.95 1028.76 1028.55 1028.33 1028.09 1027.87 1027.66 1027.50 1027.38 1027.32 1027.32 1027.37 1027.49 1027.64 1027.82 1028.02 1028.22 1028.41 1028.57 1028.70 1028.79 1028.84 1028.86 1028.86 1028.82 1028.78 1028.72 1028.65 1028.57 1028.49
1032.11 1031.75 1031.40 1031.06 1030.75 1030.46 1030.21 1029.99 1029.80 1029.63 1029.47 1029.32 1029.16 1028.99 1028.80 1028.60 1028.37 1028.14 1027.91 1027.69 1027.49 1027.32 1027.20 1027.14 1027.12 1027.16 1027.24 1027.36 1027.50 1027.66 1027.82 1027.96 1028.08 1028.18 1028.24 1028.27 1028.28 1028.26 1028.22 1028.16 1028.09 1028.01 1027.92 1027.81
Thickness
5375 5378 5375 5373 5371 5365 5363 5365 5370 5376 5375 5387 5381 5374 5371 5367 5363 5363 5363 5363 5362 5361 5359 5359 5360 5361 5363 5364 5365 5366 5367 5368 5369 5370 5372 5373 5374 5375 5377 5379 5380 5381 5382 5383
5363 5368 5365 5366 5366 5361 5360 5358 5357 5361 5368 5371 5365 5360 5356 5354 5353 5353 5352 5352 5351 5350 5348 5348 5348 5349 5350 5351 5352 5353 5354 5355 5356 5357 5359 5360 5361 5362 5363 5365 5366 5367 5368 5369
5355 5351 5356 5356 5359 5355 5351 5348 5350 5355 5363 5357 5353 5350 5346 5344 5343 5342 5342 5341 5339 5338 5337 5337 5336 5337 5337 5338 5339 5340 5340 5341 5343 5344 5345 5346 5347 5348 5348 5350 5352 5353 5354 5356
5338 5340 5347 5367 5354 5351 5347 5343 5340 5344 5345 5342 5341 5339 5336 5334 5332 5331 5331 5330 5329 5328 5327 5326 5325 5325 5325 5325 5326 5327 5327 5328 5329 5330 5331 5332 5333 5334 5334 5335 5337 5339 5340 5341
5326 5327 5337 5351 5348 5337 5335 5339 5335 5334 5334 5331 5327 5327 5327 5326 5323 5322 5321 5319 5318 5317 5316 5315 5314 5313 5313 5313 5313 5314 5315 5315 5316 5317 5318 5319 5320 5320 5320 5321 5322 5324 5326 5327
5315 5323 5333 5351 5340 5331 5331 5334 5333 5326 5325 5319 5318 5318 5323 5318 5314 5312 5310 5308 5306 5305 5304 5303 5303 5302 5302 5302 5302 5302 5302 5303 5304 5304 5305 5305 5306 5306 5306 5307 5308 5310 5312 5313
5309 5310 5325 5330 5323 5324 5326 5335 5326 5317 5315 5309 5307 5310 5308 5304 5302 5300 5298 5296 5295 5293 5292 5292 5291 5291 5291 5291 5290 5290 5291 5291 5291 5292 5292 5292 5292 5292 5293 5294 5295 5295 5297 5299
5298 5301 5321 5319 5314 5317 5322 5316 5311 5307 5304 5300 5298 5296 5294 5292 5291 5289 5287 5285 5283 5282 5281 5280 5280 5280 5279 5278 5279 5279 5279 5279 5279 5279 5279 5280 5280 5280 5280 5280 5280 5281 5282 5284
5307 5318 5316 5307 5307 5306 5302 5302 5300 5297 5294 5291 5287 5285 5284 5281 5278 5277 5275 5274 5273 5271 5270 5270 5269 5269 5268 5268 5268 5268 5267 5267 5267 5267 5267 5267 5267 5267 5267 5267 5267 5268 5269 5270
5293 5302 5302 5297 5294 5293 5290 5289 5289 5286 5283 5280 5277 5275 5272 5270 5268 5266 5265 5264 5262 5261 5260 5259 5259 5259 5257 5257 5257 5256 5256 5255 5256 5256 5256 5256 5256 5256 5255 5255 5254 5255 5256 5257
5288 5292 5291 5292 5287 5284 5281 5279 5276 5274 5272 5270 5268 5265 5262 5260 5258 5256 5256 5254 5253 5251 5250 5249 5248 5248 5248 5247 5246 5245 5245 5245 5245 5245 5244 5244 5244 5244 5244 5244 5243 5244 5244 5245
5291 5289 5283 5285 5280 5275 5272 5270 5267 5264 5261 5260 5258 5256 5253 5251 5249 5247 5245 5244 5242 5242 5241 5240 5239 5238 5237 5237 5236 5234 5235 5234 5234 5234 5234 5233 5233 5234 5234 5234 5235 5235 5236 5236
5277 5274 5271 5270 5267 5265 5262 5260 5257 5254 5252 5250 5248 5246 5244 5241 5239 5237 5235 5234 5233 5232 5231 5230 5229 5229 5228 5227 5226 5225 5223 5223 5223 5223 5223 5222 5222 5223 5223 5224 5224 5224 5225 5225
5264 5262 5262 5260 5257 5254 5251 5249 5246 5243 5242 5240 5238 5235 5233 5230 5228 5226 5225 5224 5223 5222 5221 5220 5219 5219 5218 5217 5216 5215 5214 5214 5213 5212 5211 5211 5211 5211 5211 5211 5211 5211 5212 5213
5255 5252 5251 5249 5246 5244 5241 5238 5235 5233 5231 5229 5227 5225 5222 5220 5218 5216 5215 5215 5214 5213 5212 5211 5210 5210 5209 5208 5207 5206 5204 5203 5202 5201 5201 5200 5200 5199 5199 5198 5198 5198 5199 5199
5246 5243 5241 5239 5237 5233 5230 5227 5225 5223 5221 5219 5217 5215 5212 5210 5207 5206 5205 5204 5203 5203 5203 5202 5202 5201 5200 5199 5198 5196 5194 5194 5193 5192 5190 5189 5188 5188 5187 5186 5186 5185 5185 5186
5236 5235 5232 5229 5227 5224 5221 5218 5216 5215 5212 5210 5208 5205 5202 5200 5198 5196 5195 5194 5193 5193 5193 5194 5193 5193 5192 5190 5188 5187 5185 5184 5184 5182 5180 5178 5177 5176 5175 5174 5174 5173 5174 5175
5230 5229 5225 5222 5219 5216 5214 5211 5208 5206 5203 5201 5198 5195 5193 5191 5189 5187 5186 5184 5184 5184 5184 5185 5184 5184 5183 5181 5179 5178 5176 5174 5172 5170 5169 5168 5167 5166 5165 5164 5163 5163 5163 5164
5222 5220 5217 5215 5212 5209 5206 5203 5200 5197 5194 5192 5189 5187 5184 5182 5180 5178 5177 5175 5175 5175 5176 5176 5176 5175 5173 5171 5171 5168 5166 5164 5163 5161 5159 5159 5158 5156 5155 5154 5153 5153 5153 5153
5213 5212 5209 5207 5204 5201 5198 5195 5191 5188 5185 5183 5180 5178 5176 5174 5172 5170 5168 5167 5167 5167 5167 5167 5166 5165 5164 5162 5161 5159 5156 5155 5153 5151 5150 5149 5147 5146 5145 5144 5144 5143 5143 5144
5204 5202 5200 5198 5195 5192 5189 5186 5182 5180 5177 5174 5172 5170 5168 5166 5163 5161 5160 5159 5160 5159 5158 5159 5157 5155 5154 5153 5152 5149 5147 5145 5144 5142 5141 5139 5138 5137 5136 5135 5135 5134 5134 5134
5194 5192 5190 5188 5185 5182 5179 5177 5174 5172 5169 5166 5164 5162 5160 5157 5155 5153 5152 5151 5151 5151 5150 5149 5147 5146 5145 5144 5142 5140 5138 5136 5134 5133 5131 5130 5129 5128 5128 5127 5126 5126 5126 5126
5186 5183 5181 5178 5175 5173 5170 5167 5165 5163 5160 5158 5156 5154 5152 5150 5147 5145 5144 5144 5142 5142 5141 5139 5138 5138 5138 5134 5132 5129 5128 5126 5125 5124 5122 5122 5121 5120 5120 5119 5118 5118 5118 5118
5176 5174 5171 5168 5165 5163 5161 5159 5157 5155 5152 5150 5148 5146 5143 5141 5139 5137 5136 5135 5134 5133 5131 5130 5130 5129 5127 5124 5122 5120 5118 5117 5116 5115 5114 5114 5113 5113 5112 5112 5111 5111 5111 5111
5167 5164 5161 5159 5156 5154 5153 5150 5148 5145 5143 5141 5139 5137 5134 5132 5130 5128 5126 5125 5124 5123 5121 5120 5120 5119 5116 5114 5112 5111 5109 5108 5108 5108 5107 5106 5106 5105 5105 5105 5105 5104 5105 5105
5156 5154 5152 5150 5147 5145 5143 5141 5139 5136 5134 5132 5130 5128 5125 5123 5121 5119 5117 5115 5114 5113 5112 5110 5109 5108 5106 5104 5103 5102 5101 5100 5100 5099 5099 5099 5099 5099 5099 5099 5098 5098 5099 5100
5146 5144 5143 5140 5138 5136 5133 5131 5129 5127 5125 5123 5121 5119 5116 5114 5112 5110 5108 5107 5105 5104 5102 5101 5100 5099 5097 5096 5095 5094 5093 5093 5093 5092 5092 5092 5092 5093 5093 5093 5093 5093 5094 5094